Regional Weather Roundup
Issued by NWS

Home | Current Version | Previous Version | Graphics & Text | Print | Product List | Glossary On
Versions: 1 2 3 4 5 6 7 8 9 10 11 12 13 14 15 16 17 18 19 20 21 22 23 24 25 26 27 28 29 30 31 32 33 34 35 36 37 38 39 40 41 42 43 44 45 46 47 48 49 50
000
ASUS43 KBIS 241810
RWRND

NORTH DAKOTA REGIONAL WEATHER ROUNDUP
NATIONAL WEATHER SERVICE BISMARCK ND
100 PM CDT SUN SEP 24 2017

NOTE: "FAIR" INDICATES FEW OR NO CLOUDS BELOW 12,000 FEET WITH NO
SIGNIFICANT WEATHER AND/OR OBSTRUCTIONS TO VISIBILITY.


NDZ001>003-009>011-017-241900-
NORTHWEST NORTH DAKOTA

CITY           SKY/WX    TMP DP  RH WIND       PRES   REMARKS
WILLISTON      CLOUDY    47  41  80 N8        30.11R
6HR MIN TEMP:  44; 6HR MAX TEMP:  47; 6HR PCP:  0.05;

MINOT          CLOUDY    49  46  90 NW13      30.03R
MINOT AFB      CLOUDY    48  45  91 N14       30.02S
$$

NDZ018>021-031>035-040>046-241900-
SOUTHWEST NORTH DAKOTA

CITY           SKY/WX    TMP DP  RH WIND       PRES   REMARKS
BISMARCK       CLOUDY    50  48  93 N8        30.01R
6HR MIN TEMP:  49; 6HR MAX TEMP:  50; 6HR PCP:  0.17;

DICKINSON      CLOUDY    45  43  93 N10       30.06R
GARRISON         N/A     47  43  86 N15G23    30.03S
6HR MIN TEMP:  46; 6HR MAX TEMP:  47; 6HR PCP:  0.02;

HETTINGER ARPT CLOUDY    45  43  93 N13       30.07R FOG
$$

NDZ004>008-012>016-024-026-027-054-241900-
NORTHEAST NORTH DAKOTA

CITY           SKY/WX    TMP DP  RH WIND       PRES   REMARKS
GRAND FORKS    RAIN      53  53 100 NW14      29.88R FOG
GRND FRKS AFB  HVY RAIN  54  54 100 N12       29.91R
DEVILS LAKE    LGT RAIN  48  46  93 N17G23    29.95R
$$

NDZ022-023-025-028>030-036>039-047>053-241900-
SOUTHEAST NORTH DAKOTA

CITY           SKY/WX    TMP DP  RH WIND       PRES   REMARKS
FARGO          LGT RAIN  56  55  97 NW9       29.85R
6HR MIN TEMP:  55; 6HR MAX TEMP:  57; 6HR PCP:  0.33;

JAMESTOWN      LGT RAIN  51  49  92 N14       29.92R
$$




USA.gov is the U.S. government's official web portal to all federal, state and local government web resources and services.